sat.trackr.live / text

‹ back to catalog

EUTELSAT 21B

NORAD 38992 · 2012-062B

PAYLOAD ACTIVE UNKNOWN

§ Identity

Operator
Country
EUTE
Launch date
2012-11-10
Launch site
FRGUI
Launch vehicle
Mass (kg)
RCS (m²)
5.15

Purposes: comms

External: N2YO · Heavens-Above · Gunter

§ Orbital elements

Epoch: 2026-05-25T03:50:46.672224Z

Period
1,436.12 min
Inclination
0.0672°
Eccentricity
0.0002998
Mean motion
1.00269963 rev/d
Perigee alt
35,774.5 km
Apogee alt
35,799.7 km
Semi-major
42,165.2 km
B*
0.0000e+0
RAAN
355.0648°
Arg perigee
68.8810°
Mean anomaly
258.0996°
Rev number
4,959

§ Raw data

EUTELSAT 21B1 38992U 12062B   26145.16026241  .00000127  00000+0  00000+0 0  99902 38992   0.0672 355.0648 0002998  68.8810 258.0996  1.00269963 49590

JSON: /api/v1/satellites/38992 · /tle

For live sub-satellite position, see the globe view (requires WebGL).

§ Visibility from observer

Set your observer location to see the next 7 days of passes ≥ 10°. The values pass through the URL so the page stays shareable.

No JS? Fill the form by hand. The geolocation button needs JavaScript.